User: anonymous   Login
Location: Bouchavesnes-Bergen
(49.9859°N, 2.9203°E)
Time: 11:53:47
(UTC+00:00)
Language:

NOAA 16 DEB - Orbit

View from above orbital plane
View from above orbital plane
View from above satellite
View from above satellite

Ground track
Ground track

The orbit data is extracted from the following two-line orbital elements,

1 41215U 00055DU  21262.49526232  .00000852  00000-0  40665-3 0  9998
2 41215  98.7900 354.1939 0032794 120.3831 240.0595 14.21584938299577
Epoch (UTC): 19 September 2021 11:53:10
Eccentricity: 0.0032794
inclination: 98.7900°
perigee height: 796 km
apogee height: 843 km
right ascension of ascending node: 354.1939°
argument of perigee: 120.3831°
revolutions per day: 14.21584938
mean anomaly at epoch: 240.0595°
orbit number at epoch: 29957

The dashed part of the orbit path shows where the satellite is in the earth's shadow,  

DLR